Theta_e
318 319 319 320 313 309 314 316 313 313 316 318 328 328 326 330 334 341 342 337 339 341 340 336 336 337 337 333 332 331 331 333 333 331 328 327 329 328 329 327 327 328 328 327 325 326 328 329 334
318 319 320 318 312 313 313 313 317 315 316 322 322 324 328 330 336 338 335 337 340 343 343 340 337 338 338 334 331 331 332 334 335 333 330 328 328 329 330 329 328 328 329 330 330 330 332 334 333
319 319 319 311 309 314 314 316 316 318 319 318 325 332 330 330 333 339 343 340 346 346 346 343 340 339 339 337 331 331 332 335 336 335 332 328 329 329 330 330 328 328 329 329 330 331 332 333 334
319 319 317 314 318 318 317 314 314 316 323 325 325 321 331 336 324 337 341 339 341 345 346 345 346 345 342 339 332 331 332 335 337 337 334 331 329 330 329 330 328 327 328 328 329 330 332 333 334
318 318 313 316 318 318 315 312 318 318 321 321 319 314 313 316 325 334 327 337 335 329 331 329 336 344 341 340 334 333 334 336 337 337 336 334 330 330 329 328 328 326 326 327 328 329 331 333 332
317 314 313 316 317 315 315 315 313 316 321 317 314 313 311 310 312 315 325 338 345 346 345 341 342 345 345 342 338 334 335 337 338 337 337 335 332 330 330 328 327 326 325 326 327 328 330 332 330
313 308 313 314 314 315 315 314 310 311 311 311 316 313 310 310 311 316 325 336 334 335 340 345 345 345 344 343 342 336 334 335 336 336 336 335 334 332 331 330 328 326 325 326 326 327 328 330 327
313 309 314 313 314 314 312 314 312 310 310 311 311 308 309 309 310 311 313 312 312 314 324 338 341 342 341 343 343 339 335 334 334 336 337 337 335 334 333 332 330 327 326 326 327 327 327 328 326
311 308 309 314 312 312 311 311 311 311 310 310 309 310 308 309 310 311 311 312 311 311 312 316 320 327 334 339 342 339 337 335 335 334 334 335 334 334 333 332 330 328 327 327 327 327 327 327 325
308 306 310 310 310 310 310 311 310 310 309 309 309 308 309 310 310 310 310 310 310 310 310 311 311 311 320 335 340 340 337 335 334 334 332 332 332 332 332 332 331 329 328 328 328 328 328 327 326
307 307 308 311 310 310 309 310 310 309 308 310 308 309 310 310 310 310 310 310 310 310 310 310 310 310 311 312 331 335 339 336 335 334 332 331 331 332 332 333 333 331 329 328 329 329 329 327 326
307 307 308 308 310 310 309 309 309 309 308 307 309 309 309 310 310 310 310 310 309 309 309 309 309 309 310 310 311 317 327 334 338 336 334 333 332 332 333 333 333 332 330 328 328 329 330 328 326
306 308 309 310 310 310 309 309 309 308 308 309 310 309 309 308 307 307 308 308 309 309 309 309 309 309 309 309 309 310 311 314 327 336 339 337 333 333 332 333 333 332 331 329 328 329 330 329 327
308 308 308 309 309 309 309 308 309 308 310 309 309 307 306 306 305 307 308 309 309 309 309 309 309 309 309 309 309 309 309 310 312 325 334 338 338 334 333 332 333 332 331 330 329 329 329 330 329
308 307 306 307 308 307 309 308 307 308 309 307 305 305 304 304 304 304 304 305 306 307 307 308 308 308 309 309 309 309 309 309 309 311 325 330 337 338 336 334 333 332 332 331 330 330 330 331 330
308 307 306 307 307 308 307 306 307 307 309 304 303 302 302 302 302 301 301 302 303 304 305 306 306 306 307 307 308 308 308 308 308 309 310 321 332 338 338 338 335 333 333 331 331 331 331 331 331
305 305 306 306 307 306 306 305 305 305 305 302 301 301 301 301 301 301 301 302 303 303 304 305 305 305 306 305 306 307 307 307 307 307 308 310 315 330 335 337 338 336 333 332 332 332 334 333 332
305 307 306 304 306 306 305 304 302 302 302 299 299 299 300 299 299 299 300 301 302 302 302 303 304 304 305 305 304 304 305 305 305 305 306 308 310 311 322 332 336 337 335 333 332 334 335 335 333
307 307 305 304 305 307 305 304 303 301 300 299 298 298 298 299 299 300 301 301 302 302 302 302 301 301 301 302 303 303 303 304 305 305 305 306 308 309 309 318 332 336 337 335 333 334 336 336 335
306 306 305 305 305 307 304 304 301 301 299 298 298 297 297 298 300 300 300 301 301 301 301 301 300 299 298 298 298 299 300 303 304 305 306 306 306 307 308 310 318 331 335 333 334 332 335 336 335
306 305 306 306 308 307 305 305 304 302 300 299 298 297 296 296 296 297 298 298 299 299 298 297 296 296 296 296 297 298 299 299 301 304 305 306 306 306 307 308 310 327 327 331 334 333 333 336 336
307 306 307 308 307 307 306 307 305 303 301 299 298 297 296 294 295 295 296 298 298 299 297 296 295 295 295 295 296 296 296 297 300 302 303 305 307 307 307 307 307 311 329 332 332 335 331 333 335
308 308 308 308 307 307 307 306 305 304 303 300 298 296 295 294 293 294 295 295 296 295 294 294 294 294 294 293 294 294 296 297 299 301 303 305 307 308 308 307 306 308 320 329 326 326 333 331 333
309 309 310 307 306 308 307 307 304 305 304 300 298 296 295 294 294 294 295 294 295 294 293 292 293 293 294 294 293 295 296 296 298 300 303 306 309 311 313 309 307 313 320 324 325 328 330 332 334
309 307 309 309 309 309 310 308 306 302 299 298 296 295 295 293 293 294 294 294 294 292 292 292 292 293 293 293 293 294 295 297 298 299 302 305 309 310 315 315 318 322 320 323 328 327 334 333 332
308 310 311 312 313 313 311 311 306 301 298 297 296 295 294 293 293 293 293 293 292 292 293 292 292 291 292 291 291 291 294 295 297 299 300 302 308 310 315 319 321 320 322 321 322 326 327 324 333
308 309 309 312 311 311 309 304 303 300 299 297 296 295 294 293 292 292 292 292 292 293 292 292 291 291 290 290 290 291 293 294 294 296 299 303 304 310 314 320 321 322 322 322 321 326 324 325 322
310 309 313 310 315 314 308 307 306 303 301 297 293 294 294 293 293 293 292 291 292 293 293 293 292 291 289 289 289 288 290 292 292 293 296 300 301 304 311 317 319 322 323 321 324 322 323 324 323
311 311 311 313 311 311 306 307 304 304 300 295 294 294 294 293 292 292 290 289 290 292 294 293 293 291 291 290 289 288 290 291 291 291 293 294 295 296 301 312 318 321 322 322 322 321 322 322 322
311 312 313 314 313 313 304 304 299 299 296 295 295 294 293 292 290 290 288 288 288 288 292 293 293 292 291 291 290 287 290 292 292 292 291 290 291 293 297 302 309 313 315 318 319 320 318 320 319
Wind_Speed
3 4 6 2 4 5 3 3 3 7 3 8 17 16 9 9 3 4 0 10 7 5 2 7 8 9 9 10 11 11 11 12 12 10 8 8 8 7 8 8 8 9 10 10 10 9 7 5 4
2 2 1 3 5 3 5 4 7 5 7 16 15 11 12 6 10 8 5 7 6 5 2 6 7 8 8 9 11 12 12 13 13 11 9 8 8 8 8 8 8 9 10 10 10 9 7 6 6
3 2 1 4 3 2 3 5 8 15 13 3 6 14 6 4 18 8 12 9 7 7 6 2 4 7 10 11 12 12 12 13 13 12 10 8 9 8 8 8 8 10 10 10 10 9 8 8 7
2 1 4 4 4 2 3 9 8 5 12 14 11 8 18 12 9 16 17 16 13 13 10 6 6 7 12 13 13 13 13 14 15 13 11 10 9 9 9 9 9 9 10 10 9 9 9 9 9
3 2 4 2 1 2 4 11 14 9 6 9 11 7 11 18 12 15 16 16 18 19 18 18 19 13 9 12 12 13 13 14 15 14 13 12 11 11 11 11 10 10 10 10 10 9 9 9 9
2 2 4 3 2 4 4 12 12 15 19 18 17 11 7 16 17 14 15 16 14 12 10 10 10 9 12 10 12 13 13 14 15 15 15 14 13 13 13 12 12 11 11 10 10 10 10 10 9
3 3 4 4 3 2 3 8 6 3 10 12 8 5 7 14 19 19 18 15 12 8 6 3 5 8 11 10 13 14 16 16 17 18 18 17 16 15 15 14 13 12 12 11 11 11 11 10 10
2 4 0 2 3 3 4 2 6 9 7 8 6 4 2 12 10 11 13 16 13 12 8 4 1 5 5 7 12 16 17 19 20 20 19 19 18 17 17 16 15 14 14 13 13 13 12 12 11
2 4 2 3 2 3 3 3 4 4 7 17 8 11 7 6 4 2 5 7 8 11 12 8 5 5 6 8 10 13 17 20 21 22 22 22 21 20 20 19 18 17 17 16 15 14 14 13 14
4 4 5 4 1 1 2 1 1 3 8 6 15 9 8 5 4 2 8 12 13 13 13 13 12 11 10 9 11 13 15 19 23 23 24 25 24 24 24 23 21 21 20 19 17 16 15 16 16
2 4 3 4 8 2 4 2 0 3 3 3 13 17 16 14 14 12 11 12 14 15 15 15 15 14 12 13 11 16 15 20 21 25 26 27 27 27 27 26 25 24 24 23 21 20 19 17 18
1 5 3 3 8 5 0 4 3 2 8 11 19 18 16 16 15 13 12 11 14 16 17 18 19 19 19 18 15 14 20 23 21 26 27 30 32 30 31 31 29 28 27 26 25 23 21 19 19
3 4 8 6 7 5 3 2 1 8 20 20 18 13 15 15 15 13 13 12 14 16 20 21 22 25 26 26 26 24 22 20 25 26 24 31 35 35 34 34 33 32 31 30 29 27 24 22 22
7 8 14 11 10 9 4 4 4 19 19 17 13 15 14 15 16 13 13 14 15 16 19 24 28 29 31 33 33 32 31 29 24 26 31 25 34 38 39 39 38 37 35 34 32 30 28 26 25
7 6 8 6 5 6 10 1 2 22 18 17 14 13 13 16 16 21 20 20 21 22 23 26 29 33 36 38 41 42 39 37 34 29 28 38 28 36 41 44 42 42 39 37 35 33 32 29 28
4 3 4 5 3 1 8 1 6 7 17 17 13 13 14 16 19 21 24 26 29 30 31 32 34 37 37 38 42 44 46 45 40 38 35 29 36 29 37 45 47 46 43 40 39 37 36 34 32
4 3 3 8 3 2 3 4 6 7 14 15 13 13 14 15 18 23 26 27 29 31 33 34 33 34 40 43 37 40 42 44 44 41 41 37 34 36 29 36 46 48 46 45 42 40 38 38 35
4 3 4 4 3 3 3 2 5 10 13 13 13 14 16 19 22 25 27 29 31 32 34 36 36 36 35 37 41 39 37 39 42 42 40 41 41 38 42 32 31 44 48 50 47 43 41 39 37
1 2 5 5 4 2 1 5 3 7 13 14 15 16 19 22 24 25 28 30 33 35 37 39 41 41 38 36 36 37 39 37 37 40 36 39 40 40 37 42 35 41 46 50 52 46 44 41 38
6 5 6 5 4 4 5 2 2 4 5 9 13 17 21 25 26 29 31 33 35 38 40 41 41 40 39 37 35 34 36 33 34 36 37 34 37 38 36 34 41 39 51 41 49 48 48 44 41
9 6 4 6 2 2 5 3 5 3 8 6 9 11 19 25 30 31 33 34 36 37 39 40 39 38 37 36 36 35 35 34 32 33 37 34 33 37 36 37 34 37 39 49 50 48 51 48 45
9 8 7 4 3 5 3 7 4 6 5 3 6 13 20 23 25 28 32 35 36 37 37 36 36 36 36 37 37 36 35 37 33 34 37 38 33 33 34 36 35 39 34 46 44 40 49 49 49
9 7 8 6 5 3 3 2 1 8 5 2 5 12 16 20 23 26 30 32 33 33 34 33 33 33 35 35 33 33 32 33 33 30 36 36 28 25 27 28 35 38 37 28 52 66 57 55 53
1 4 3 4 3 5 8 9 4 5 4 4 3 8 14 19 23 23 25 28 31 30 31 31 32 33 33 33 31 28 28 31 31 30 33 29 25 27 19 21 25 29 32 46 46 54 51 57 54
4 5 1 2 1 7 6 6 4 5 4 5 4 7 11 16 21 24 26 29 30 30 30 31 31 32 30 29 28 25 25 25 24 25 28 27 24 20 17 18 20 25 28 34 32 25 37 48 43
7 8 5 6 5 3 2 5 4 3 10 9 7 5 7 14 18 20 22 25 27 28 29 30 30 29 28 28 28 24 19 17 16 20 22 21 18 16 16 15 24 26 29 28 32 39 27 17 38
5 9 7 7 1 1 2 4 3 7 6 6 6 5 8 11 15 17 20 23 24 27 28 28 28 27 26 26 29 27 21 16 16 15 15 12 10 9 8 14 16 22 24 24 21 25 19 31 30
8 6 3 1 3 4 3 3 4 11 10 6 4 3 4 8 12 15 19 22 22 23 25 24 24 26 26 26 28 28 20 17 18 13 8 2 4 9 11 17 17 17 19 20 6 22 26 17 11
1 3 3 1 3 4 1 5 2 10 9 7 6 3 3 7 11 13 15 18 20 20 21 24 25 26 28 28 30 31 28 23 23 25 20 21 20 23 24 29 28 26 24 18 15 11 16 16 13
6 3 5 3 4 2 4 5 3 5 9 13 10 4 1 6 8 9 12 16 19 21 20 22 23 25 26 29 32 35 36 33 30 28 32 31 32 33 36 37 37 34 31 29 25 13 12 10 7
Wind_Direction
320 301 328 351 46 58 285 259 311 311 359 44 81 92 97 57 44 143 271 14 20 52 228 215 206 205 205 206 197 193 192 191 190 185 173 163 163 156 150 152 157 161 163 169 174 184 194 195 176
318 324 11 82 80 56 284 261 351 283 312 107 77 83 57 59 57 45 42 12 43 39 96 211 223 229 233 226 215 204 198 198 198 198 192 181 179 174 167 167 166 169 172 176 182 186 187 185 175
342 359 33 90 113 157 272 302 301 297 345 240 108 49 36 56 49 54 49 48 59 68 66 341 285 267 246 238 229 217 208 203 203 206 207 202 195 191 186 182 181 178 178 179 182 184 185 180 182
353 86 58 85 153 266 268 299 273 273 69 74 98 53 62 78 59 70 73 70 67 74 71 41 336 314 274 249 232 226 218 211 207 211 216 215 209 205 203 198 198 192 188 185 186 185 186 182 181
47 76 62 75 119 266 283 347 22 65 79 75 73 100 79 70 70 88 72 67 55 54 48 37 28 6 303 261 249 234 225 218 214 215 221 223 221 218 216 212 210 205 198 194 194 192 190 185 187
31 65 78 198 175 278 316 4 26 57 93 94 92 99 59 57 65 73 82 77 61 51 39 24 11 7 347 305 277 259 236 225 221 222 227 228 228 226 224 221 219 215 208 204 204 202 197 193 197
89 66 180 151 201 95 322 357 46 34 43 15 116 91 77 59 75 77 90 99 95 88 109 39 342 335 339 323 287 266 255 236 228 227 229 230 229 229 229 228 227 224 217 212 212 208 206 205 208
7 89 49 220 160 129 344 36 8 35 52 52 46 55 19 58 90 99 87 75 69 63 68 114 257 276 283 308 308 273 256 250 240 236 235 237 235 232 231 231 231 231 225 219 218 215 212 210 213
4 57 326 269 110 170 11 62 6 345 55 64 83 97 92 86 106 218 85 93 63 51 51 44 18 321 275 295 303 284 266 258 251 247 241 237 237 235 232 232 233 234 230 226 223 223 220 217 214
92 97 226 264 147 177 153 38 21 11 13 81 120 98 88 111 88 48 15 11 11 19 15 12 10 354 342 305 281 296 264 257 262 257 253 247 241 237 235 233 232 234 233 230 228 226 223 221 216
95 170 209 270 298 263 159 159 287 20 73 325 102 104 95 92 78 67 50 24 7 356 348 349 339 339 338 332 296 292 297 267 256 259 259 254 249 242 238 234 232 232 232 231 229 227 226 222 217
357 232 135 285 342 342 300 147 313 123 40 109 111 100 84 67 60 49 40 21 357 347 342 333 331 327 322 320 315 309 292 283 266 259 258 258 255 247 242 237 234 233 234 234 232 231 230 225 219
213 316 322 308 278 260 218 248 215 98 109 112 112 99 69 62 52 38 25 8 353 340 330 325 322 317 315 312 308 302 299 301 282 274 261 256 256 255 248 243 238 236 234 234 233 232 230 226 221
315 292 297 296 249 246 236 231 182 113 130 114 104 80 61 43 31 17 3 351 344 334 323 321 319 312 307 305 301 296 294 292 289 282 270 264 258 254 253 248 242 239 237 237 234 232 231 228 224
298 317 322 276 256 208 166 268 77 135 141 106 85 70 52 36 18 14 5 355 347 337 329 322 316 310 304 297 295 294 289 285 284 279 278 265 264 259 252 251 246 243 239 239 236 233 231 227 224
346 25 340 294 89 182 146 198 21 87 127 90 73 56 38 25 16 8 2 358 353 345 338 331 324 319 310 303 298 292 289 283 277 276 271 273 265 251 260 254 250 245 241 239 238 234 231 228 225
358 239 237 315 278 146 142 136 355 59 101 77 58 43 31 18 10 6 0 355 350 344 338 330 325 320 315 312 304 294 290 287 280 273 268 263 269 264 257 254 257 248 243 240 237 234 231 230 225
200 222 244 248 303 11 131 142 23 50 75 61 44 27 18 11 7 2 358 353 350 345 340 335 331 327 321 313 310 306 296 289 284 277 267 261 258 266 268 264 247 249 245 241 236 233 231 230 228
3 265 266 268 261 257 312 141 127 65 60 41 26 14 8 3 359 356 355 352 347 345 342 340 338 336 332 324 314 309 307 303 291 285 274 263 261 260 265 269 260 250 236 240 238 232 233 230 224
263 256 244 282 264 177 152 137 84 95 74 58 29 14 2 355 357 356 355 353 351 347 343 340 339 338 337 334 323 315 312 306 301 297 288 273 267 267 265 264 271 278 226 242 238 232 232 230 223
235 219 224 219 276 291 106 258 195 100 112 64 35 14 3 3 356 357 356 356 351 348 347 344 342 341 339 336 328 320 313 309 305 306 302 291 277 270 266 257 256 261 222 238 237 234 232 230 224
242 209 210 205 136 235 146 275 204 166 152 87 39 9 7 2 359 360 357 354 351 348 346 343 341 341 339 338 334 330 322 315 314 308 304 300 292 279 273 261 256 245 242 233 226 234 236 232 230
246 181 178 179 191 135 225 296 65 142 193 147 37 13 4 358 359 1 359 353 354 351 348 343 340 341 344 342 337 329 319 311 310 304 299 299 293 290 273 261 252 253 243 244 230 244 236 231 229
228 99 56 38 114 256 188 190 233 188 180 145 62 18 0 355 0 3 0 355 357 354 349 348 347 348 347 343 340 332 316 309 309 310 303 306 304 306 282 252 244 246 243 234 241 234 229 233 228
155 125 264 300 338 242 208 204 263 168 140 134 107 31 2 350 1 5 1 360 1 356 354 356 354 353 349 350 345 335 325 314 312 312 304 297 302 298 265 243 222 223 228 234 259 261 246 220 231
189 180 178 224 218 255 219 239 276 113 135 130 103 61 4 356 4 6 3 2 3 1 2 2 0 358 355 360 359 354 349 336 314 308 306 300 294 281 267 222 224 233 240 247 243 255 232 240 238
203 205 192 233 253 140 230 298 222 163 168 150 106 43 10 354 1 5 6 6 6 7 8 10 7 9 10 12 10 356 355 1 360 339 302 297 286 263 209 179 207 223 231 238 245 232 218 225 233
175 174 107 357 221 227 270 270 245 204 202 180 136 86 355 351 2 10 11 10 13 11 12 17 18 20 23 25 26 22 19 22 31 28 22 16 83 132 177 172 186 197 203 231 223 197 208 193 144
147 152 48 349 150 186 238 257 269 200 171 166 147 128 335 345 358 8 10 17 17 16 19 20 22 26 34 37 36 32 40 38 51 57 64 75 82 85 105 128 147 148 137 136 177 131 144 177 183
337 290 118 215 220 188 158 267 6 116 138 151 152 153 348 339 355 6 13 23 24 23 25 26 24 27 34 43 45 44 51 57 56 62 72 70 75 78 94 102 108 113 113 119 135 158 144 163 140